[[{"header":{"parameterUnit":"m.s-1","parameterCategory":1,"la1":30.2991,"la2":30.254,"lo1":-89.0895,"lo2":-89.0444,"dy":0.0017,"dx":0.0017,"nx":28,"ny":28,"refTime":"2023-10-26T03:00:00:Z","depth":0,"parameterNumber":2,"parameterNumberName":"U-component_of_WINDS"},"data":[0,0,0,0,0,0,0,0,0,0,0,0,0,0,0,0,0,0,0,0,0,0,0,0,0,0,0,0,0,0,0,0,0,0,0,0,0,0,0,0,0,0,0,0,0,0,0,0,0,0,0,0,0,0,0,0,0,0,-5.7897,-5.7899,0,-5.8084,-5.8086,-5.8088,-5.8082,-5.808,-5.8077,-5.8075,-5.8264,-5.8271,-5.8279,0,0,0,0,0,0,0,0,0,0,0,0,0,-5.7537,-5.7543,-5.7897,-5.7899,-5.7902,-5.8083,-5.8086,-5.8088,-5.8083,-5.8079,-5.8076,-5.8073,-5.8262,-5.827,-5.8279,0,0,0,0,0,0,0,0,0,0,0,0,0,-5.7705,-5.7545,-5.7896,-5.7921,-5.7925,-5.8083,-5.8086,-5.8089,-5.8083,-5.8079,-5.8076,-5.8072,-5.8259,-5.827,-5.8281,-5.8427,0,0,-5.8315,-5.832,0,0,0,0,0,0,0,0,-5.7695,-5.7718,-5.7915,-5.7919,-5.7924,-5.8056,-5.8028,-5.8202,-5.8084,-5.8023,-5.8075,-5.807,-5.8198,-5.8214,-5.8257,-5.8435,-5.8444,-5.8316,-5.8322,-5.8327,-5.833,0,0,0,0,0,0,0,-5.7684,-5.771,-5.7971,-5.7918,-5.7923,-5.7923,-5.7942,-5.8061,-5.813,-5.8028,-5.8028,-5.805,-5.82,-5.8246,-5.8262,-5.8446,-5.8315,-5.8325,-5.8332,-5.8337,-5.8756,-5.876,0,0,0,0,0,0,-5.7667,-5.77,-5.7965,-5.7976,-5.7798,-5.7932,-5.7954,-5.8017,-5.8128,-5.8142,-5.8053,-5.8049,-5.8229,-5.8249,-5.8268,-5.8446,-5.8327,-5.8338,-5.8344,-5.8752,-5.8757,-5.8762,0,0,0,0,0,0,-5.7659,-5.7691,-5.7957,-5.7839,-5.7873,-5.7942,-5.8013,-5.8023,-5.807,-5.8148,-5.816,-5.8088,-5.8227,-5.8252,-5.8388,-5.8453,-5.8343,-5.8353,-5.8747,-5.8753,-5.876,-5.8803,0,0,0,0,0,0,-5.7649,-5.7688,-5.7743,-5.784,-5.7879,-5.8073,-5.8018,-5.8029,-5.8089,-5.8086,-5.8184,-5.8196,-5.8226,-5.8371,-5.8399,-5.8466,-5.8362,-5.8741,-5.875,-5.8757,-5.8796,-5.8811,-5.8823,0,0,0,0,0,-5.7636,-5.7747,-5.7746,-5.7778,-5.795,-5.8077,-5.8099,-5.8131,-5.8094,-5.8151,-5.8202,-5.8193,-5.8443,-5.8385,-5.8416,-5.8488,-5.8737,-5.8747,-5.8757,-5.879,-5.8808,-5.8823,0,0,0,0,0,0,-5.7655,-5.776,-5.776,-5.7906,-5.7983,-5.8076,-5.8147,-5.8149,-5.8237,-5.823,-5.8266,-5.8288,-5.8424,-5.847,-5.8404,-5.8636,-5.8585,-5.8602,-5.86,-5.8617,-5.863,-5.8614,-5.8371,0,0,0,0,0,-5.7677,-5.7771,-5.7858,-5.7979,-5.8018,-5.8076,-5.8133,-5.8152,-5.8232,-5.8264,-5.8325,-5.8403,-5.85,-5.8562,-5.8654,-5.8805,-5.8826,-5.887,-5.8884,-5.8894,-5.8907,-5.8991,-5.9011,-5.8795,-5.8795,-5.8795,0,0,-5.7721,-5.779,-5.7847,-5.7984,-5.8046,-5.8143,-5.8103,-5.8207,-5.828,-5.828,-5.8411,-5.8459,-5.8549,-5.8693,-5.876,-5.8736,-5.8972,-5.8907,-5.8915,-5.8922,-5.9003,-5.9023,-5.9041,-5.8802,-5.88,-5.8799,0,0,-5.785,-5.7913,-5.802,-5.8084,-5.8179,-5.8218,-5.8244,-5.8339,-5.8371,-5.8504,-5.8506,-5.8594,-5.8759,-5.8823,-5.8877,-5.9038,-5.9033,-5.9068,-5.9135,-5.9217,-5.9234,-5.9249,-5.9305,-5.9324,-5.9081,-5.9081,-5.9081,0,-5.7893,-5.8039,-5.8075,-5.8181,-5.8241,-5.8249,-5.8358,-5.8418,-5.8538,-5.858,-5.8553,-5.8761,-5.8823,-5.8982,-5.9021,-5.9066,-5.9097,-5.9054,-5.9229,-5.9244,-5.9259,-5.9312,-5.9334,-5.9085,-5.9084,-5.9084,-5.9083,0,-5.8087,-5.8189,-5.8264,-5.8381,-5.8451,-5.8558,-5.861,-5.8677,-5.8692,-5.8734,-5.8871,-5.8946,-5.9054,-5.9095,-5.9109,-5.9257,-5.924,-5.9221,-5.9169,-5.9282,-5.9333,-5.9354,-5.9089,-5.9088,-5.9087,-5.9086,0,0,-5.8227,-5.8367,-5.8393,-5.8447,-5.8555,-5.8634,-5.8744,-5.8851,-5.8907,-5.8992,-5.9083,-5.9225,-5.9209,-5.9271,-5.9294,-5.9366,-5.9487,-5.9338,-5.9341,-5.9361,-5.9654,-5.9665,-5.9688,-5.9487,-5.9491,-5.9495,-5.9646,0,-5.8366,-5.8558,-5.8596,-5.8763,-5.8858,-5.8869,-5.8964,-5.9041,-5.9085,-5.9173,-5.9222,-5.9321,-5.9294,-5.9331,-5.9403,-5.9457,-5.9546,-5.9447,-5.9571,-5.9575,-5.9544,-5.9715,-5.9727,-5.9865,-5.9666,-5.967,-5.9672,0,-5.8552,-5.8642,-5.8819,-5.8916,-5.8957,-5.9042,-5.9144,-5.9229,-5.9317,-5.9345,-5.9416,-5.9433,-5.9547,-5.9494,-5.9652,-5.9584,-5.9639,-5.9674,-5.968,-5.9689,-5.9627,-5.9726,-5.991,-5.993,-5.9704,-5.9702,-5.9699,0,-5.8634,-5.8801,-5.8928,-5.8974,-5.9091,-5.915,-5.9202,-5.9287,-5.935,-5.9441,-5.9483,-5.9586,-5.9641,-5.9721,-5.9765,-5.9723,-5.992,-5.9871,-5.9945,-5.9944,-5.9982,-5.9978,-6.0174,-6.0023,-6.0023,-6.0023,-6.0022,0,-5.8783,-5.889,-5.8966,-5.9044,-5.9165,-5.921,-5.9328,-5.938,-5.9456,-5.9544,-5.9563,-5.9645,-5.9701,-5.9792,-5.9828,-5.9953,-5.9979,-6.0004,-6.0011,-6.0,-5.9996,-6.0032,-6.0022,-6.0028,-6.0027,-6.0026,-6.0025,0,-5.8892,-5.8948,-5.9087,-5.9189,-5.9217,-5.9302,-5.9388,-5.9465,-5.9512,-5.9624,-5.9653,-5.9726,-5.9835,-5.9888,-6.0023,-6.0048,-6.0189,-6.0192,-6.0158,-6.016,-6.023,-6.0222,-6.0453,-6.0485,-6.0316,-6.0318,-6.0319,0,-5.8981,-5.9064,-5.9175,-5.9236,-5.929,-5.9388,-5.9453,-5.9502,-5.9569,-5.9679,-5.9743,-5.9853,-5.9942,-6.0116,-6.0181,-6.0285,-6.0289,-6.0364,-6.0304,-6.0291,-6.0287,-6.028,-6.0289,-6.0372,-6.0374,-6.0375,-6.0376,0,-5.9133,-5.9158,-5.9251,-5.9355,-5.9433,-5.9518,-5.9601,-5.965,-5.9713,-5.9788,-5.99,-5.997,-6.0109,-6.0218,-6.0328,-6.0382,-6.0389,-6.0395,-6.0417,-6.0404,-6.038,-6.0392,-6.0183,-6.0388,-6.0387,-6.0386,-6.0385,-6.0385,-5.9233,-5.9308,-5.9398,-5.9502,-5.9571,-5.9649,-5.9726,-5.9785,-5.9879,-5.9996,-6.002,-6.0139,-6.0229,-6.0377,-6.0435,-6.0529,-6.0513,-6.0545,-6.0553,-6.0559,-6.0561,-6.037,-6.055,-6.055,-6.0549,-6.0549,-6.0549,0,-5.9383,-5.9443,-5.9539,-5.9656,-5.9739,-5.9742,-5.9836,-5.9904,-6.0008,-6.0092,-6.0181,-6.0311,-6.0418,-6.0494,-6.0603,-6.0664,-6.067,-6.069,-6.0684,-6.0697,-6.0571,-6.054,-6.0683,-6.0683,-6.0683,-6.0683,-6.0683,-6.0683,-5.9471,-5.9597,-5.9633,-5.9794,-5.9854,-5.9971,-6.0024,-6.0097,-6.0164,-6.0308,-6.0397,-6.0447,-6.0528,-6.0644,-6.0743,-6.0763,-6.0801,-6.0821,-6.084,-6.072,-6.0705,-6.0692,-6.0662,-6.0829,-6.083,-6.0957,-6.0958,-6.0959]},{"header":{"parameterUnit":"m.s-1","parameterCategory":1,"la1":30.2991,"la2":30.254,"lo1":-89.0895,"lo2":-89.0444,"dy":0.0017,"dx":0.0017,"nx":28,"ny":28,"refTime":"2023-10-26T03:00:00:Z","depth":0,"parameterNumber":3,"parameterNumberName":"V-component_of_WINDS"},"data":[0,0,0,0,0,0,0,0,0,0,0,0,0,0,0,0,0,0,0,0,0,0,0,0,0,0,0,0,0,0,0,0,0,0,0,0,0,0,0,0,0,0,0,0,0,0,0,0,0,0,0,0,0,0,0,0,0,0,2.0629,2.063,0,2.0686,2.0687,2.0687,2.0717,2.0717,2.0717,2.0717,2.077,2.0772,2.0773,0,0,0,0,0,0,0,0,0,0,0,0,0,2.0544,2.0545,2.0629,2.063,2.0631,2.0686,2.0687,2.0687,2.0717,2.0717,2.0717,2.0717,2.077,2.0771,2.0773,0,0,0,0,0,0,0,0,0,0,0,0,0,2.0588,2.0546,2.0629,2.0652,2.0655,2.0686,2.0687,2.0688,2.0717,2.0717,2.0717,2.0717,2.0769,2.0771,2.0773,2.0784,0,0,2.078,2.078,0,0,0,0,0,0,0,0,2.0586,2.0592,2.0648,2.0651,2.0654,2.0695,2.0676,2.072,2.0717,2.0693,2.0717,2.0717,2.0745,2.0749,2.0759,2.0787,2.0789,2.078,2.0781,2.0782,2.0782,0,0,0,0,0,0,0,2.0583,2.0589,2.0652,2.0649,2.0652,2.0659,2.0665,2.0684,2.0717,2.0695,2.0697,2.0704,2.0746,2.0757,2.0761,2.079,2.078,2.0782,2.0783,2.0784,2.0831,2.0831,0,0,0,0,0,0,2.0576,2.0587,2.065,2.0653,2.0619,2.066,2.0667,2.0681,2.0717,2.0723,2.0704,2.0705,2.0753,2.0758,2.0762,2.0779,2.0782,2.0784,2.0785,2.0831,2.0831,2.0831,0,0,0,0,0,0,2.0575,2.0582,2.0647,2.0621,2.0629,2.0662,2.0677,2.0682,2.0693,2.0724,2.073,2.0709,2.0754,2.076,2.0779,2.0781,2.0785,2.0787,2.0831,2.0831,2.0831,2.0811,0,0,0,0,0,0,2.0572,2.0581,2.0586,2.0621,2.0631,2.0664,2.0677,2.0683,2.0697,2.0699,2.073,2.0736,2.0754,2.0776,2.0781,2.0784,2.0788,2.0831,2.0831,2.0831,2.0812,2.0811,2.081,0,0,0,0,0,2.0569,2.0577,2.0586,2.0593,2.0638,2.0664,2.067,2.0693,2.0697,2.0702,2.0723,2.0735,2.078,2.0778,2.0784,2.0787,2.0831,2.0831,2.0831,2.0812,2.0811,2.081,0,0,0,0,0,0,2.0539,2.0581,2.0592,2.0612,2.0635,2.0669,2.0676,2.069,2.071,2.0711,2.0737,2.0744,2.0762,2.0776,2.0773,2.0801,2.0807,2.0808,2.0791,2.0789,2.0788,2.0784,2.079,0,0,0,0,0,2.0535,2.0554,2.059,2.0603,2.0614,2.0643,2.0655,2.0671,2.0695,2.0704,2.0726,2.0747,2.0767,2.0779,2.0798,2.0815,2.0822,2.082,2.0819,2.0818,2.0818,2.0829,2.0829,2.0832,2.0832,2.0832,0,0,2.0526,2.0552,2.0562,2.0598,2.0617,2.0636,2.0651,2.0669,2.0683,2.0707,2.0728,2.0744,2.077,2.0788,2.0798,2.0801,2.082,2.0818,2.0817,2.0818,2.0829,2.0829,2.0829,2.0832,2.0832,2.0832,0,0,2.052,2.0541,2.0556,2.0576,2.0606,2.0626,2.0629,2.0663,2.0675,2.0697,2.0716,2.0732,2.0764,2.0783,2.0796,2.08,2.0812,2.0805,2.0799,2.0809,2.0809,2.0809,2.0811,2.0811,2.0806,2.0806,2.0806,0,2.0505,2.0535,2.0561,2.058,2.0595,2.062,2.0635,2.0652,2.0686,2.0696,2.07,2.0744,2.0762,2.0786,2.0788,2.0797,2.0802,2.0801,2.0807,2.0807,2.0808,2.081,2.0811,2.0805,2.0805,2.0805,2.0805,0,2.0515,2.0536,2.0544,2.0579,2.0596,2.0612,2.064,2.0654,2.0669,2.0688,2.071,2.0734,2.076,2.0766,2.078,2.0793,2.0794,2.0803,2.0809,2.0806,2.0809,2.081,2.0803,2.0804,2.0804,2.0804,0,0,2.049,2.0542,2.0544,2.0562,2.0598,2.0614,2.0631,2.0659,2.067,2.0693,2.0709,2.0737,2.0746,2.0761,2.0777,2.0786,2.0789,2.0794,2.0795,2.0792,2.0806,2.0799,2.08,2.0798,2.0798,2.0798,2.0804,0,2.049,2.0525,2.055,2.0575,2.0594,2.0619,2.0635,2.0658,2.0677,2.0696,2.0716,2.0736,2.0745,2.0755,2.0765,2.0786,2.0792,2.0786,2.0812,2.0812,2.0805,2.0801,2.0794,2.0798,2.0805,2.0805,2.0805,0,2.0493,2.0518,2.0546,2.0582,2.0591,2.0605,2.0633,2.0651,2.0678,2.0691,2.071,2.0727,2.0747,2.0752,2.078,2.0775,2.0787,2.0799,2.08,2.0803,2.0808,2.0805,2.08,2.0801,2.0807,2.0807,2.0806,0,2.0473,2.0514,2.0536,2.055,2.0592,2.0602,2.0619,2.0647,2.0663,2.0687,2.0697,2.0722,2.0736,2.0755,2.0778,2.078,2.0803,2.081,2.0815,2.0814,2.0818,2.0817,2.0816,2.0825,2.0825,2.0825,2.0825,0,2.047,2.0486,2.0528,2.0542,2.0561,2.0589,2.0607,2.0627,2.0652,2.0669,2.0691,2.0707,2.0737,2.0756,2.0775,2.0795,2.0801,2.0812,2.0816,2.081,2.0809,2.0818,2.0818,2.0825,2.0825,2.0825,2.0825,0,2.045,2.0479,2.0506,2.0545,2.0555,2.0567,2.0601,2.0615,2.0636,2.0658,2.0664,2.0696,2.072,2.0746,2.0778,2.0791,2.081,2.0817,2.0802,2.0804,2.0808,2.0807,2.0812,2.0815,2.0822,2.0821,2.0821,0,2.0447,2.046,2.0502,2.0516,2.0535,2.0557,2.0574,2.0603,2.0619,2.0653,2.0663,2.0689,2.0712,2.0749,2.0774,2.0799,2.0807,2.0807,2.081,2.0804,2.0808,2.0807,2.0809,2.0805,2.0805,2.0805,2.0805,0,2.0437,2.0451,2.0476,2.0505,2.0525,2.055,2.0574,2.0585,2.0619,2.0636,2.0662,2.068,2.0714,2.074,2.0769,2.0786,2.0801,2.0804,2.0806,2.08,2.0791,2.0797,2.0799,2.0803,2.0803,2.0804,2.0804,2.0804,2.0426,2.044,2.0472,2.0499,2.0521,2.0545,2.0561,2.0585,2.0608,2.0639,2.0655,2.0681,2.071,2.075,2.0767,2.0788,2.0792,2.0795,2.0796,2.0797,2.0796,2.0788,2.0793,2.0793,2.0793,2.0793,2.0793,0,2.0418,2.0441,2.0465,2.0501,2.0522,2.0537,2.0566,2.0582,2.0606,2.0632,2.0655,2.0686,2.0711,2.074,2.0767,2.0778,2.0786,2.0785,2.0784,2.0788,2.079,2.0785,2.0778,2.0778,2.0778,2.0778,2.0778,2.0778,2.0417,2.0442,2.046,2.0496,2.0519,2.0547,2.0562,2.0584,2.0605,2.0639,2.0662,2.0681,2.0708,2.0738,2.0763,2.077,2.078,2.0776,2.0786,2.0787,2.0788,2.0789,2.0785,2.0778,2.0778,2.0783,2.0783,2.0783]}]]